Location: Jackson
(35.6140°N, 88.8140°W)
Time: 16:07:01
(UTC-05:00)

Hubble Space Telescope - Visible Passes

Search period start: 23 March 2019 00:00
Search period end: 02 April 2019 00:00
Orbit: 537 x 540 km, 28.5° (Epoch: 22 March)

Date Brightness Start Highest point End Pass type
(mag) Time Alt. Az. Time Alt. Az. Time Alt. Az.
23 Mar 2.9 20:10:40 10° S 20:12:23 12° SSE 20:13:02 12° SSE visible
24 Mar 2.8 19:59:26 10° SSW 20:01:47 15° SSE 20:03:28 12° SE visible
25 Mar 2.6 19:48:26 10° SSW 19:51:12 17° SSE 19:53:49 11° ESE visible
25 Mar 3.2 21:28:17 10° SW 21:29:10 15° SW 21:29:10 15° SW visible
26 Mar 2.5 19:37:34 10° SSW 19:40:37 20° SSE 19:43:41 10° ESE visible
26 Mar 2.8 21:17:42 10° WSW 21:19:27 21° SW 21:19:27 21° SW visible
27 Mar 2.3 21:07:09 10° WSW 21:09:41 26° SSW 21:09:41 26° SSW visible
28 Mar 2.0 20:56:38 10° WSW 20:59:53 29° SSW 20:59:53 29° SSW visible
29 Mar 1.9 20:46:07 10° WSW 20:49:42 28° S 20:50:02 28° S visible
30 Mar 2.1 20:35:39 10° WSW 20:39:09 27° S 20:40:11 24° SSE visible
31 Mar 2.3 20:25:12 10° WSW 20:28:36 25° S 20:30:20 19° SSE visible
01 Apr 2.5 20:14:47 10° WSW 20:18:02 22° SSW 20:20:29 14° SSE visible
